This demonstration page uses our WeatherBlox Daily Observations layout. Learn more.

Left ArrowRight Arrow

Hourly Observations for October 5, 2022

Temp ( °F °C ) Dew Point ( °F °C ) Humidity (%) Winds ( mph kmh ) Pressure ( in mb ) Visibility ( mi km ) Precip ( " mm )
12:59 am 00:59 Cloudy 53 11.7 49 9.4 86 86 WNW 13 20 29.92 1013 7 11 0.00 0.00
1:59 am 01:59 Cloudy 53 11.7 49 9.4 86 86 WNW 15 24 29.91 1013 10 16 0.00 0.00
2:59 am 02:59 Cloudy 53 11.7 49 9.4 86 86 WNW 15 24 29.90 1013 10 16 0.00 0.00
3:59 am 03:59 Cloudy 53 11.7 49 9.4 86 86 WNW 20 31 29.88 1012 10 16 0.00 0.00
4:59 am 04:59 Cloudy 53 11.7 48 8.9 83 83 NW 17 28 29.88 1012 10 16 0.00 0.00
5:59 am 05:59 Cloudy with Light Rain 53 11.7 49 9.4 86 86 WNW 16 26 29.88 1012 6 10 0.00 0.00
6:59 am 06:59 Cloudy 53 11.7 49 9.4 86 86 NW 13 20 29.89 1012 10 16 0.01 0.13
7:59 am 07:59 Cloudy 53 11.7 49 9.4 86 86 NW 16 26 29.91 1013 10 16 0.00 0.00
8:59 am 08:59 Cloudy with Mist and Fog 54 12.2 50 10 86 86 WNW 15 24 29.91 1013 6 10 0.01 0.13
9:59 am 09:59 Cloudy 55 12.8 51 10.6 86 86 NW 16 26 29.92 1013 10 16 0.00 0.00
10:59 am 10:59 Cloudy 57 13.9 52 11.1 83 83 NW 17 28 29.93 1013 10 16 0.01 0.13
11:59 am 11:59 Cloudy 59 15 52 11.1 77 77 NNW 15 24 29.93 1013 10 16 0.00 0.00
12:59 pm 12:59 Cloudy 59 15 54 12.2 83 83 NW 16 26 29.94 1014 10 16 0.00 0.00
1:59 pm 13:59 Cloudy 61 16.1 55 12.8 81 81 NW 14 22 29.93 1014 10 16 0.00 0.00
2:59 pm 14:59 Cloudy 61 16.1 55 12.8 81 81 NW 16 26 29.93 1014 10 16 0.00 0.00
3:59 pm 15:59 Cloudy 61 16.1 55 12.8 81 81 NW 15 24 29.94 1014 10 16 0.00 0.00
4:59 pm 16:59 Cloudy 61 16.1 55 12.8 81 81 NW 14 22 29.95 1014 10 16 0.00 0.00
5:59 pm 17:59 Cloudy 61 16.1 55 12.8 81 81 NW 12 19 29.96 1015 10 16 0.00 0.00
6:59 pm 18:59 Mostly Cloudy 61 16.1 56 13.3 83 83 NW 9 15 29.98 1015 10 16 0.00 0.00
7:59 pm 19:59 Mostly Cloudy 62 16.7 56 13.3 80 80 NW 9 15 29.99 1016 10 16 0.00 0.00
8:59 pm 20:59 Mostly Cloudy 61 16.1 56 13.3 83 83 NW 9 15 30.00 1016 10 16 0.00 0.00
9:59 pm 21:59 Mostly Cloudy 62 16.7 56 13.3 80 80 NW 8 13 30.01 1016 10 16 0.00 0.00
10:59 pm 22:59 Mostly Cloudy 62 16.7 56 13.3 80 80 NNW 8 13 30.01 1016 10 16 0.00 0.00
11:59 pm 23:59 Mostly Cloudy 62 16.7 57 13.9 84 84 WNW 5 7 30.01 1016 10 16 0.00 0.00

Powered by AerisWeather